Wind_Speed
85 86 89 90 92 92 91 96 97 94 89 86 83 80 73 70 71 70 65 62 60 55 53 49 48 49 44 40 37 35 36 35
95 95 96 97 100 104 100 100 103 106 99 93 91 85 81 70 69 71 67 66 65 61 56 54 50 49 47 43 39 37 36 35
104 106 105 108 108 108 108 110 107 109 110 100 97 93 83 80 73 72 70 67 65 64 58 56 51 48 50 47 41 38 38 38
100 106 106 109 110 108 110 111 111 111 107 105 99 96 87 82 78 76 70 65 67 65 62 57 59 49 49 50 44 43 41 42
93 94 100 101 105 105 106 106 109 105 107 109 102 98 88 84 82 78 74 72 75 72 67 62 60 56 50 49 53 48 46 48
93 94 95 98 101 102 102 104 105 106 104 108 103 102 94 79 83 78 80 81 76 77 73 67 61 60 53 53 54 51 50 49
90 90 87 89 91 91 94 98 101 103 104 105 107 102 97 89 75 81 81 82 83 81 77 70 66 62 58 59 54 52 52 55
81 76 72 66 67 70 75 71 73 80 84 92 97 94 96 86 57 76 84 83 82 84 78 75 74 68 64 63 62 58 59 57
65 63 61 60 57 59 61 60 59 67 74 77 81 81 79 57 39 88 93 80 77 80 76 64 58 57 64 67 63 63 63 61
57 54 45 48 50 51 50 46 45 54 65 62 65 67 65 48 66 58 58 63 75 78 74 64 62 56 55 65 66 67 68 67
43 38 37 42 43 47 46 41 35 36 46 44 44 48 55 58 57 47 34 64 74 80 78 55 48 51 56 59 61 70 76 71
35 33 37 39 39 44 49 43 36 29 34 33 38 44 54 60 61 53 55 80 86 77 63 48 40 44 50 55 62 63 68 70
30 30 32 36 38 39 40 36 25 23 26 32 41 48 66 68 58 55 60 79 78 68 53 44 49 59 67 65 68 68 69 66
31 34 31 27 33 30 30 18 14 17 25 31 49 60 64 56 43 54 52 61 63 56 55 47 44 78 69 71 68 76 74 72
35 27 31 18 15 10 11 11 10 20 30 51 66 70 50 47 56 67 83 70 75 72 69 56 63 71 73 86 82 79 82 79
35 31 28 24 16 10 18 23 27 28 41 50 64 71 61 55 59 72 77 74 70 81 89 73 77 84 85 86 89 94 89 91
37 31 26 21 17 18 22 26 31 40 52 57 65 69 69 65 64 67 73 64 78 71 85 95 99 98 99 98 99 92 95 100
38 37 31 23 26 23 33 31 34 47 54 62 66 57 74 68 69 76 78 87 78 83 97 100 105 102 104 103 101 100 99 100
45 41 36 30 34 28 33 39 41 45 67 64 60 64 78 87 82 79 87 91 96 97 97 111 112 112 107 109 113 112 107 110
Wind_Direction
268 272 274 272 271 271 272 274 274 274 272 272 274 271 268 265 263 260 258 258 258 252 254 253 255 255 257 260 266 269 270 269
267 267 266 267 270 271 268 270 271 272 270 269 269 268 269 259 254 258 257 256 253 251 249 251 248 252 255 257 261 264 266 268
269 267 266 266 266 267 268 271 268 268 270 269 266 266 265 265 253 248 254 254 254 254 252 247 248 250 253 253 255 260 264 265
271 270 268 268 269 268 266 266 266 266 268 267 264 263 263 261 256 247 246 250 252 250 251 246 249 246 250 252 252 255 257 265
271 267 269 271 271 271 268 266 265 263 263 266 265 258 258 259 254 250 247 246 247 248 249 251 246 246 245 248 257 256 255 263
273 273 273 271 269 268 266 263 262 262 260 259 262 260 258 252 255 252 246 247 246 246 249 249 249 249 246 248 253 260 255 260
280 278 274 271 269 268 265 261 260 260 258 256 254 254 253 250 249 249 244 245 249 250 250 246 248 256 251 247 247 254 254 255
281 280 277 275 274 272 269 265 258 255 252 251 249 251 246 249 243 257 244 243 250 252 252 246 253 255 252 251 251 250 253 254
282 280 278 277 274 272 271 267 258 254 251 247 244 243 238 230 204 248 251 244 248 255 258 262 263 262 257 254 257 259 254 254
278 279 280 279 280 283 281 273 256 244 250 251 241 237 229 211 200 230 250 259 249 256 261 264 266 272 265 257 252 248 252 253
280 282 283 280 285 287 287 281 265 246 246 243 236 230 219 189 180 217 231 261 260 251 258 266 276 271 265 257 253 251 255 256
275 282 272 282 282 280 281 279 271 248 234 226 212 208 201 191 188 191 194 240 251 246 259 265 253 250 248 250 261 261 260 257
276 254 265 272 269 271 270 261 240 226 215 204 194 180 168 170 178 197 196 223 243 242 252 238 242 249 243 250 257 254 251 256
240 257 270 261 275 264 245 232 222 203 188 184 172 163 167 166 185 204 227 237 256 248 247 248 230 245 251 256 253 255 253 257
246 262 253 250 261 250 168 139 172 178 170 158 161 158 156 166 188 205 215 224 225 247 248 238 230 231 245 247 245 256 255 258
256 252 225 238 233 217 167 161 149 154 160 167 170 158 167 180 196 207 214 210 219 226 244 237 243 237 238 243 249 251 253 259
245 238 214 204 198 208 178 169 164 158 160 159 170 180 185 189 201 210 215 217 213 221 223 239 241 241 240 243 249 251 255 258
243 232 199 203 200 202 180 181 177 169 168 179 172 181 198 203 202 209 213 210 217 222 228 231 233 238 240 243 250 253 256 257
239 235 207 214 201 197 187 188 188 188 179 182 189 190 201 204 204 209 217 218 220 224 229 232 237 240 243 246 247 250 252 256
Height
10628 10622 10617 10617 10617 10620 10620 10614 10617 10627 10636 10638 10643 10645 10656 10659 10664 10667 10673 10678 10685 10690 10692 10695 10697 10698 10701 10704 10705 10706 10707 10708
10608 10607 10604 10599 10590 10588 10603 10600 10595 10592 10608 10619 10621 10630 10635 10646 10650 10648 10656 10661 10666 10676 10680 10682 10686 10688 10691 10693 10697 10697 10700 10699
10579 10578 10577 10573 10574 10570 10572 10572 10577 10574 10571 10592 10598 10604 10618 10623 10629 10632 10640 10646 10652 10659 10668 10671 10675 10681 10682 10684 10687 10690 10690 10691
10551 10546 10544 10541 10544 10548 10547 10546 10544 10544 10551 10555 10573 10580 10593 10605 10612 10619 10629 10638 10636 10644 10650 10658 10661 10670 10673 10674 10678 10680 10681 10680
10524 10517 10512 10515 10510 10513 10514 10516 10514 10521 10522 10519 10535 10556 10571 10584 10594 10602 10613 10620 10624 10630 10633 10642 10648 10654 10664 10666 10664 10668 10671 10669
10490 10489 10493 10487 10483 10481 10479 10482 10484 10488 10499 10499 10503 10522 10544 10567 10576 10587 10599 10597 10611 10616 10622 10626 10637 10641 10651 10654 10654 10657 10659 10660
10460 10458 10457 10453 10450 10451 10445 10449 10455 10455 10461 10470 10477 10491 10514 10536 10559 10571 10584 10585 10593 10599 10609 10617 10623 10633 10637 10638 10644 10645 10645 10646
10431 10428 10426 10428 10424 10420 10416 10422 10423 10422 10427 10432 10446 10463 10488 10514 10548 10557 10568 10572 10580 10584 10593 10604 10612 10620 10624 10627 10632 10635 10633 10634
10411 10409 10408 10405 10403 10400 10396 10395 10397 10398 10399 10406 10419 10438 10467 10498 10523 10542 10552 10561 10569 10572 10577 10587 10600 10609 10613 10616 10624 10623 10622 10622
10395 10394 10391 10387 10386 10383 10379 10376 10377 10379 10382 10391 10401 10417 10447 10483 10522 10544 10543 10549 10556 10558 10565 10577 10587 10592 10593 10597 10606 10609 10610 10611
10381 10380 10378 10376 10375 10369 10364 10358 10361 10367 10370 10376 10388 10405 10429 10459 10488 10530 10522 10544 10554 10548 10557 10572 10575 10572 10572 10579 10583 10590 10595 10597
10372 10371 10369 10368 10367 10361 10354 10351 10353 10357 10361 10369 10380 10395 10412 10433 10464 10510 10536 10561 10548 10540 10554 10562 10561 10556 10557 10563 10567 10569 10579 10581
10367 10366 10362 10362 10358 10355 10351 10348 10348 10350 10356 10364 10374 10389 10410 10428 10454 10490 10525 10536 10531 10531 10545 10546 10553 10550 10549 10548 10550 10553 10564 10566
10360 10359 10357 10354 10353 10350 10347 10344 10343 10346 10353 10364 10374 10387 10412 10434 10463 10486 10503 10513 10514 10525 10532 10535 10535 10544 10536 10535 10535 10543 10549 10553
10352 10353 10351 10348 10347 10347 10341 10342 10344 10348 10356 10364 10377 10387 10403 10428 10450 10478 10491 10503 10508 10513 10517 10519 10522 10523 10525 10524 10523 10525 10527 10531
10346 10347 10345 10344 10343 10343 10343 10341 10340 10350 10352 10365 10379 10385 10407 10424 10438 10453 10468 10482 10493 10506 10504 10502 10503 10506 10506 10506 10507 10508 10513 10512
10339 10341 10340 10340 10339 10340 10345 10344 10346 10351 10358 10362 10372 10387 10396 10403 10425 10443 10453 10465 10476 10480 10483 10480 10474 10480 10489 10489 10489 10495 10498 10498
10332 10335 10335 10335 10336 10338 10344 10345 10348 10354 10357 10365 10366 10377 10390 10398 10406 10419 10428 10439 10442 10453 10456 10451 10451 10460 10464 10466 10472 10477 10479 10482
10323 10328 10328 10330 10332 10333 10337 10341 10344 10349 10353 10356 10362 10364 10368 10374 10388 10401 10410 10416 10423 10426 10427 10430 10433 10435 10444 10449 10451 10456 10460 10462